SCP
0 0 0 0 0 0 0 0 0 0 0 0 0 0 0 0 0 0 0 0 0 0 0 0 0 0 0 0 0 0 0 0 0 0 0 0 0 0 0 0 0 0 0 0
0 0 0 0 0 0 0 0 0 0 0 0 0 0 0 0 0 0 0 0 0 0 0 0 0 0 0 0 0 0 0 0 0 0 0 0 0 0 0 0 0 0 0 0
0 0 0 0 0 0 0 0 0 0 0 0 0 0 0 0 0 0 0 0 0 0 0 0 0 0 0 0 0 0 0 0 0 0 0 0 0 0 0 0 0 0 0 0
0 0 0 0 0 0 0 0 0 0 0 0 0 0 0 0 0 0 0 0 0 0 0 0 1 0 0 0 0 0 0 0 0 0 0 0 0 0 0 0 0 0 0 0
0 0 0 0 0 0 0 0 0 0 0 0 0 0 0 0 0 0 0 0 0 1 1 1 1 1 1 1 0 0 0 0 0 0 0 0 0 0 0 0 0 0 0 0
0 0 0 0 0 0 0 0 0 0 0 0 0 0 0 0 0 0 0 0 0 0 1 1 1 1 1 0 0 0 0 0 1 1 0 0 0 0 0 0 0 0 0 0
0 0 0 0 0 0 0 0 0 0 0 0 0 0 0 0 0 0 0 0 0 0 1 1 1 1 1 0 0 0 1 1 1 1 1 0 0 0 0 0 0 0 0 0
0 0 0 0 0 0 0 0 0 0 0 0 0 0 0 0 0 0 0 0 0 1 1 1 1 1 1 1 0 0 1 1 1 1 1 0 0 0 0 0 0 0 0 0
0 0 0 0 0 0 0 0 0 0 0 0 0 0 0 0 0 0 0 0 0 1 1 1 1 1 1 1 1 1 1 1 1 0 0 0 0 0 0 0 0 0 0 0
0 0 0 0 0 0 0 0 0 0 0 0 0 0 0 0 0 0 0 0 0 0 1 1 1 1 1 1 1 1 0 0 0 0 0 0 0 0 0 0 0 0 0 0
0 0 0 0 0 0 0 0 0 0 0 0 0 0 0 0 0 0 0 0 0 0 1 1 1 1 1 1 1 1 0 0 0 0 0 0 0 0 0 0 0 0 0 0
0 0 0 0 0 0 0 0 0 0 0 0 0 0 0 0 0 0 0 0 0 0 0 1 1 1 1 1 1 1 0 0 0 0 0 0 0 0 0 0 0 0 0 0
0 0 0 0 0 0 0 0 0 0 0 0 0 0 0 0 0 0 1 1 0 0 0 0 1 1 1 1 1 1 0 0 0 0 0 0 0 0 0 0 0 0 0 0
0 0 0 0 0 0 0 0 0 0 0 0 0 0 0 0 0 0 1 1 1 0 0 0 1 1 1 1 1 1 0 0 0 0 0 0 0 0 0 0 0 0 0 0
0 0 0 0 0 0 0 0 0 0 0 0 0 0 0 0 0 0 1 1 0 0 0 0 1 1 1 1 1 1 0 0 0 0 0 0 0 0 0 0 0 0 0 0
0 0 0 0 0 0 0 0 0 0 0 0 0 0 0 0 0 0 1 1 0 0 0 0 1 1 1 1 1 1 0 0 0 0 0 0 0 0 0 0 0 0 0 0
0 0 0 0 0 0 0 0 0 0 0 0 0 0 0 0 0 0 0 0 0 0 0 0 1 1 1 1 1 1 0 0 0 0 0 0 0 0 0 0 0 0 0 0
0 0 0 0 0 0 0 0 0 0 0 0 0 0 0 0 0 0 0 0 0 0 0 0 0 0 1 1 1 1 1 0 0 0 0 0 0 0 0 0 0 0 0 0
0 0 0 0 0 0 0 0 0 0 0 0 0 0 0 0 0 0 0 0 0 0 0 0 0 0 1 1 1 1 1 1 0 0 0 0 0 0 0 0 0 0 0 0
0 0 0 0 0 0 0 0 0 0 0 0 0 0 0 0 0 0 0 0 0 0 0 0 0 1 1 1 1 1 1 1 0 0 0 0 0 0 0 0 0 0 0 0
0 0 0 0 0 0 0 0 0 0 0 0 0 0 0 0 0 0 0 0 0 0 0 0 0 1 1 1 1 1 1 1 1 0 0 0 0 0 0 0 0 0 0 0
0 0 0 0 0 0 0 0 0 0 0 0 0 0 0 0 0 0 0 0 0 0 0 0 0 0 0 1 1 1 1 1 1 1 0 0 0 0 0 0 0 0 0 0
0 0 0 0 0 0 0 0 0 0 0 0 0 0 0 0 0 0 0 0 0 0 0 0 0 0 0 1 1 1 1 1 1 1 0 0 0 0 0 0 0 0 0 0
0 0 0 0 0 0 0 0 0 0 0 0 0 0 0 0 0 0 0 0 0 0 0 0 0 0 0 1 1 1 1 1 1 1 0 0 0 0 0 0 0 0 0 0
0 0 0 0 0 0 0 0 0 0 0 0 0 0 0 0 0 0 0 0 0 0 0 0 0 0 0 0 1 1 1 1 1 1 0 0 0 0 0 0 0 0 0 0
0 0 0 0 0 0 0 0 0 0 0 0 0 0 0 0 0 0 0 0 0 0 0 0 0 0 0 0 1 1 1 1 1 1 1 0 0 0 0 0 0 0 0 0
Wind_Speed
3 5 1 3 3 4 5 4 2 1 1 3 3 2 3 3 4 4 4 4 4 4 2 2 3 4 4 4 5 4 5 4 4 2 2 2 2 2 2 3 3 4 3 4
5 2 2 3 4 5 4 4 2 1 1 3 2 1 2 4 5 6 7 7 6 4 3 3 4 4 4 4 4 4 4 4 3 2 2 2 2 1 1 2 3 4 4 3
2 2 2 5 5 4 2 3 3 3 2 3 3 1 2 3 3 4 5 6 6 7 7 6 5 5 4 4 5 5 4 4 4 4 3 3 3 3 3 3 3 4 4 4
1 1 3 4 2 4 1 1 4 4 4 0 1 2 5 4 4 6 7 7 7 7 7 6 6 6 6 5 4 4 4 4 4 4 4 4 3 2 1 1 1 3 4 4
1 1 3 3 2 4 3 3 4 3 3 2 1 1 7 2 5 8 9 9 8 8 8 8 7 7 5 5 5 4 4 4 4 4 4 4 3 2 1 1 3 3 4 4
1 1 2 3 2 3 5 6 6 5 4 1 3 3 6 5 9 8 9 10 9 8 8 7 6 5 4 4 4 5 5 4 3 4 4 5 5 3 3 2 2 2 2 3
2 2 0 2 4 3 5 6 3 3 2 4 2 3 9 7 7 9 10 11 10 9 9 8 8 7 6 6 6 5 5 4 3 4 4 4 4 4 3 2 1 1 1 2
2 3 2 2 4 5 3 6 6 4 4 4 1 5 8 5 4 6 7 8 9 9 9 9 9 9 8 8 7 6 6 5 4 4 3 3 4 3 2 2 2 2 1 0
5 3 2 1 2 7 5 3 4 5 1 1 4 6 7 2 1 3 6 8 10 10 10 10 9 8 8 8 8 8 7 5 5 4 4 3 3 3 3 2 2 1 1 1
6 2 1 1 4 4 4 7 5 4 3 2 4 4 4 4 3 4 7 9 9 9 9 9 8 8 8 7 6 6 6 6 5 4 4 3 3 3 3 3 2 2 1 2
4 4 1 1 3 5 4 3 4 3 3 3 2 6 6 6 6 7 8 9 10 11 11 10 8 7 7 6 6 6 6 5 5 5 4 4 3 3 3 3 2 2 2 2
4 5 1 3 2 4 5 6 7 4 3 3 3 8 5 4 5 6 7 7 8 10 9 9 8 7 7 7 7 7 6 6 5 5 5 5 4 4 3 3 2 2 2 2
7 6 3 3 4 0 2 4 5 5 5 3 3 7 4 1 2 4 6 7 7 8 8 7 8 8 8 8 8 7 7 6 6 6 5 5 5 4 4 3 3 3 3 2
7 5 6 7 7 5 3 4 6 6 4 4 6 7 8 5 3 3 4 6 7 8 9 9 9 9 9 8 8 8 7 6 7 6 6 6 5 5 4 3 3 3 3 3
5 4 4 4 3 3 4 5 7 7 7 8 7 7 9 7 5 5 5 6 7 7 8 10 10 9 8 8 8 8 7 7 7 7 7 6 5 4 4 4 3 3 3 3
3 4 2 1 2 3 3 4 7 7 5 6 5 8 8 5 2 2 5 7 8 9 10 10 10 10 10 10 10 9 8 8 8 8 7 6 6 5 5 4 4 4 3 3
3 5 4 2 1 1 4 6 6 4 4 6 7 9 5 2 4 5 6 8 10 10 10 11 11 11 11 11 11 11 9 8 8 8 7 7 7 6 5 5 4 4 3 3
6 5 4 2 2 4 7 3 4 5 4 5 6 6 5 6 5 3 5 7 8 9 9 10 10 9 8 8 8 8 8 9 9 8 7 7 7 7 6 5 5 4 3 3
5 7 5 3 3 5 6 2 4 4 4 4 5 5 3 1 2 3 3 6 8 9 8 8 9 8 8 9 10 10 9 8 8 8 8 8 8 8 7 6 5 4 3 3
4 5 5 4 4 5 7 4 2 4 3 4 4 4 2 3 1 5 4 3 4 4 5 6 7 7 8 9 10 11 10 9 10 9 9 8 8 9 8 7 5 3 3 3
3 3 4 4 4 6 6 2 3 4 7 3 3 3 4 5 6 5 2 2 3 4 4 6 7 8 8 9 11 11 10 10 9 8 8 8 8 8 7 6 4 4 4 3
7 5 5 5 3 7 3 4 5 7 3 1 2 2 4 4 2 1 1 1 3 4 4 6 6 6 6 9 11 10 10 8 7 8 8 7 7 6 6 6 5 4 5 4
5 7 6 8 7 4 2 4 4 2 2 2 2 2 3 2 2 1 0 1 2 4 4 5 5 6 5 7 10 11 8 7 9 8 8 7 6 5 6 7 6 4 4 4
3 1 3 2 4 3 2 2 2 2 3 3 2 1 2 2 1 1 1 1 1 2 4 4 6 6 5 6 6 7 7 9 9 9 7 7 7 5 5 4 5 5 5 4
4 3 2 2 4 3 3 2 3 2 1 0 1 1 2 2 1 1 1 2 2 2 3 4 5 6 5 5 5 5 7 9 9 8 7 6 6 6 5 4 4 5 6 7
4 5 6 5 5 4 5 4 2 1 1 1 1 1 1 2 2 1 1 1 2 2 3 3 4 4 4 5 5 6 7 9 10 7 7 6 5 4 4 4 1 2 3 5
Wind_Direction
41 73 117 207 170 144 130 122 127 209 177 114 130 165 202 172 164 172 180 180 190 206 206 158 142 132 124 122 123 124 120 121 115 99 92 79 56 27 27 28 34 39 43 45
44 23 222 154 126 117 118 118 117 51 82 113 132 213 226 191 196 194 192 194 195 190 172 164 149 149 147 147 141 135 134 138 133 120 119 117 110 70 40 17 29 29 34 34
134 242 138 125 122 116 114 155 166 149 71 63 99 330 247 226 201 202 201 196 195 190 185 179 169 170 159 159 162 156 149 140 129 120 103 80 59 42 30 19 15 9 24 35
177 242 129 123 144 140 183 191 143 129 108 23 112 258 268 224 213 211 210 203 203 197 183 181 177 174 175 174 160 147 144 135 133 131 123 119 113 101 42 2 9 13 27 33
247 149 130 149 192 154 162 95 97 104 110 58 35 179 281 211 223 226 215 208 205 197 185 185 185 180 174 163 156 147 138 131 138 141 136 123 111 109 80 52 48 32 23 27
238 205 168 167 100 119 114 77 62 53 66 332 230 181 274 224 215 216 209 205 201 192 187 185 179 164 161 155 150 145 145 145 146 144 138 133 131 127 111 81 61 32 18 17
360 350 353 124 93 57 89 91 51 12 7 259 235 203 252 244 221 206 199 198 195 185 180 179 174 173 171 167 165 156 156 159 157 145 143 144 144 146 148 148 127 93 29 12
138 288 237 175 158 158 154 135 152 186 219 275 258 238 257 264 244 210 193 182 179 181 182 184 183 180 177 175 172 166 169 170 164 156 154 151 153 153 156 156 148 147 147 354
169 240 288 180 137 132 133 154 156 130 158 284 278 282 300 305 329 178 172 168 181 186 187 188 183 180 178 178 178 175 173 171 169 166 153 154 159 154 153 145 129 129 128 103
151 176 277 151 85 47 137 141 109 121 145 269 296 282 263 269 238 186 180 185 190 186 187 187 184 183 181 180 175 172 171 171 167 164 163 156 156 149 140 130 131 130 109 90
138 137 325 103 173 172 122 116 113 117 152 159 275 279 237 231 217 198 200 194 189 188 188 187 185 180 174 166 165 166 165 160 159 160 153 141 142 136 130 131 139 141 120 111
143 123 190 251 250 179 163 164 149 154 199 180 187 269 271 241 222 199 202 197 190 190 187 182 176 166 166 168 168 167 166 165 165 156 147 145 139 133 133 137 141 138 131 121
141 122 102 353 348 339 170 168 159 134 122 159 184 267 300 307 217 200 195 193 188 182 178 173 170 172 176 176 174 171 172 170 158 149 145 142 143 146 151 150 140 131 128 117
125 128 164 190 212 191 194 185 163 139 157 200 222 255 292 293 260 227 203 190 182 180 179 177 179 182 182 180 178 175 175 166 158 152 151 156 162 163 160 149 138 133 129 122
120 154 199 224 213 172 197 196 180 184 189 194 231 240 262 266 247 226 196 179 175 181 184 187 187 186 182 178 177 175 173 169 163 158 161 170 165 154 144 139 136 130 128 127
123 151 162 259 219 197 239 231 199 207 203 219 247 263 262 267 248 216 192 182 188 193 194 192 188 186 186 183 180 176 176 173 164 165 170 164 154 151 151 149 140 133 127 121
140 136 135 239 285 98 261 236 202 195 197 188 221 247 271 281 247 220 203 195 197 199 196 192 189 189 191 187 180 180 177 165 165 169 168 164 160 160 161 153 143 144 143 134
141 132 136 154 120 221 240 235 186 187 215 207 230 251 244 235 246 235 201 197 207 201 196 195 189 186 184 176 172 167 159 163 168 170 171 169 163 164 159 153 157 157 146 148
141 135 127 134 185 268 293 264 177 180 248 224 224 253 273 282 35 319 243 209 209 204 199 194 185 177 169 167 164 156 160 164 169 176 177 174 166 162 162 166 170 164 153 158
76 103 119 135 166 227 250 267 208 129 268 265 208 235 230 106 78 274 267 224 215 194 184 175 163 154 162 166 157 158 165 169 181 184 179 172 166 166 170 173 168 162 161 167
104 90 134 159 200 251 255 270 113 144 240 259 203 211 181 186 212 245 257 227 195 171 166 156 156 165 171 163 158 164 169 185 187 170 162 163 167 168 166 160 157 154 152 147
165 158 174 152 181 249 255 134 170 215 237 230 210 206 203 224 247 266 241 194 157 147 148 152 157 164 161 160 161 168 184 184 156 152 156 163 164 165 156 151 152 151 150 151
185 181 179 182 204 233 197 198 229 205 207 228 218 228 197 200 225 242 204 136 144 149 149 147 147 147 154 165 167 176 182 154 149 151 158 160 156 157 155 157 158 154 158 164
261 137 140 214 261 265 262 270 286 236 229 237 211 200 170 184 195 185 140 129 137 139 144 140 139 147 161 170 177 176 156 152 152 156 158 157 156 156 155 159 164 166 173 179
217 159 150 233 277 312 301 272 271 272 284 324 57 133 163 160 177 187 177 174 168 155 146 148 156 163 169 164 166 156 152 152 153 156 157 159 162 162 165 171 181 183 194 190
200 175 171 214 222 202 245 268 266 240 258 215 149 60 77 160 180 169 188 182 160 158 146 150 157 159 164 160 161 159 159 158 155 156 163 166 164 164 164 166 169 219 206 213